Location: Unspecified
(0.0000°N, 0.0000°E)
Time: 07:17:44
(UTC+00:00)

Explorer 11/Cluster Stage 4 - Pass Details

Date: 20 September 2019
Orbit: 467 x 1259 km, 28.8° (Epoch: 14 October)

Event Time Altitude Azimuth Distance (km) Brightness Sun altitude
Exits shadow 04:42:54 - 342° (NNW) 1,831 8.3 -17.7°
Reaches altitude 10° 04:43:40 10° 351° (N) 1,625 8.1 -17.5°
Maximum altitude 04:46:00 16° 31° (NNE) 1,343 8.2 -16.9°
Drops below altitude 10° 04:48:28 10° 70° (ENE) 1,739 9.5 -16.3°
Sets 04:51:34 0° 92° (E) 2,748 11.3 -15.5°
